map of LFOC home
Great Circle Mapper logo
LFOC - Airport
Location
City:  Châteaudun, France
ICAO:LFOC

Details
Type:Airport (Aerodrome, Airfield)
Use:Public/Civil
Latitude:48°03'28"N (48.057875)
Longitude:1°22'46"E (1.379442)
Elevation:433 ft (132 m)
Variation:0.00°W (WMM2015 magnetic declination)
0.13° annual change
Runways:1
Longest:7552 × 148 ft (2302 × 45 m)

Time
Time Zone:UTC+1 (DST+2)
Local Time:

Weather
METAR:LFOC 261630Z AUTO 04008KT 9999 BKN007 BKN011 BKN016 14/13 Q1003

Related Locations
Nearby:
Farthest:CHT: 12120 mi / 19505 km
Waitangi [Tuuta], Chatham Islands, NZ

Find:

   beyond  
but within

Other Information
Maps:
NOTAMs:
Links:
Sources:

  
flag of France   

Sectional Chart

Flight Planning
at skyvector.com

Satellite Image

Google Maps Satellite View

 

Copyright © 2004-2015 Karl L. Swartz. All rights reserved.
The Great Circle Mapper name and logo are trademarks of the Great Circle Mapper.
All other trademarks mentioned herein belong to their respective owners.
Please see credits for attibutions and further copyright information.

  Follow gcmap on Facebook Follow gcmap on Twitter Follow gcmap on Google+

hCard Microformat

Geo Microformat